Date String (YYYY-MM-DD hh:mm:ss) UTC,Instrument flags,absolute air pressure of the measurement (hPa),sample flow rate (lpm),inlet stack bypass flow (lpm),air temperature of the measurement (°C),ambient temperature measured by the external sensor (°C),aerosol sample conditioner tube jacket temperature (°C),OPC LED temperature (°C),internal box temperature (°C),relative humidity of the measurement (%),span deviation,mass concentration of particles derived from Lorenz-Mie calculation of OPC scattering (μg/m³),mass concentration of particles derived from Lorenz-Mie calculation of OPC scattering (μg/m³),mass concentration of particles derived from Lorenz-Mie calculation of OPC scattering (μg/m³)
DateTimeUTC,F1_M11,P_M11,Q1_M11,Q2_M11,T1_M11,T2_M11,T3_M11,T4_M11,T5_M11,U1_M11,ZSPAN_M11,X0_M11,X2_M11,X1_M11
2024-03-01 01:00:00,SystemResetWarning,0823.5,5.00,000.00,025.6,024.7,000.0,034.0,027.4,05.5,0000.0,0005.41,0002.94,0001.78
2024-03-01 01:01:00,SystemResetWarning,0823.5,5.00,000.00,025.6,024.7,000.0,034.0,027.4,05.4,0000.0,0005.30,0002.93,0001.79
2024-03-01 01:02:00,SystemResetWarning,0823.4,5.00,000.00,025.6,024.7,000.0,034.0,027.4,05.4,0000.0,0005.41,0002.91,0001.79
2024-03-01 01:03:00,SystemResetWarning,0823.4,5.00,000.00,025.6,024.7,000.0,034.0,027.4,05.4,0000.0,0005.12,0002.80,0001.79
2024-03-01 01:04:00,SystemResetWarning,0823.4,5.00,000.00,025.6,024.7,000.0,034.0,027.4,05.2,0000.0,0004.78,0002.76,0001.78
2024-03-01 01:05:00,SystemResetWarning,0823.4,5.00,000.00,025.6,024.7,000.0,034.0,027.4,05.1,0000.0,0004.94,0002.80,0001.78
2024-03-01 01:06:00,SystemResetWarning,0823.4,5.00,000.00,025.6,024.6,000.0,034.0,027.4,05.2,0000.0,0005.05,0002.83,0001.77
2024-03-01 01:07:00,SystemResetWarning,0823.5,5.00,000.00,025.6,024.6,000.0,034.0,027.4,05.1,0000.0,0004.96,0002.80,0001.77
2024-03-01 01:08:00,SystemResetWarning,0823.5,4.99,000.00,025.6,024.6,000.0,034.0,027.4,05.3,0000.0,0005.06,0002.83,0001.77
2024-03-01 01:09:00,SystemResetWarning,0823.5,5.00,000.00,025.6,024.6,000.0,034.0,027.4,05.3,0000.0,0005.36,0002.94,0001.79
2024-03-01 01:10:00,SystemResetWarning,0823.5,5.00,000.00,025.6,024.6,000.0,034.0,027.4,05.3,0000.0,0005.46,0002.96,0001.81
2024-03-01 01:11:00,SystemResetWarning,0823.5,5.01,000.00,025.6,024.6,000.0,034.0,027.4,05.2,0000.0,0005.48,0002.99,0001.81
2024-03-01 01:12:00,SystemResetWarning,0823.5,5.01,000.00,025.6,024.6,000.0,034.0,027.3,05.0,0000.0,0005.79,0003.02,0001.81
2024-03-01 01:13:00,SystemResetWarning,0823.5,5.00,000.00,025.5,024.6,000.0,034.0,027.3,05.0,0000.0,0007.42,0003.08,0001.81
2024-03-01 01:14:00,SystemResetWarning,0823.5,5.00,000.00,025.5,024.6,000.0,034.0,027.3,05.0,0000.0,0008.04,0003.15,0001.82
2024-03-01 01:15:00,SystemResetWarning,0823.5,5.01,000.00,025.5,024.6,000.0,034.0,027.3,04.8,0000.0,0009.59,0003.32,0001.84
2024-03-01 01:16:00,SystemResetWarning,0823.5,4.99,000.00,025.5,024.6,000.0,034.0,027.3,04.9,0000.0,0010.37,0003.40,0001.87
2024-03-01 01:17:00,SystemResetWarning,0823.5,5.00,000.00,025.5,024.5,000.0,034.0,027.3,04.9,0000.0,0010.51,0003.41,0001.90
2024-03-01 01:18:00,SystemResetWarning,0823.4,4.99,000.00,025.5,024.6,000.0,034.0,027.4,05.0,0000.0,0010.74,0003.43,0001.89
2024-03-01 01:19:00,SystemResetWarning,0823.5,5.00,000.00,025.5,024.6,000.0,034.0,027.3,05.1,0000.0,0010.78,0003.43,0001.88
2024-03-01 01:20:00,SystemResetWarning,0823.5,5.01,000.00,025.5,024.5,000.0,034.0,027.3,05.1,0000.0,0010.86,0003.44,0001.88
2024-03-01 01:21:00,SystemResetWarning,0823.5,5.01,000.00,025.5,024.5,000.0,034.0,027.3,05.0,0000.0,0010.81,0003.43,0001.87
2024-03-01 01:22:00,SystemResetWarning,0823.5,5.00,000.00,025.5,024.5,000.0,034.0,027.3,04.9,0000.0,0010.87,0003.43,0001.87
2024-03-01 01:23:00,SystemResetWarning,0823.5,5.00,000.00,025.5,024.5,000.0,034.0,027.3,04.9,0000.0,0010.84,0003.41,0001.86
2024-03-01 01:24:00,SystemResetWarning,0823.5,5.00,000.00,025.5,024.5,000.0,033.9,027.3,04.7,0000.0,0009.96,0003.43,0001.87
2024-03-01 01:25:00,SystemResetWarning,0823.5,4.99,000.00,025.5,024.5,000.0,033.9,027.3,04.8,0000.0,0009.54,0003.40,0001.87
2024-03-01 01:26:00,SystemResetWarning,0823.5,5.00,000.00,025.5,024.5,000.0,033.9,027.3,04.8,0000.0,0007.94,0003.27,0001.84
2024-03-01 01:27:00,SystemResetWarning,0823.5,5.00,000.00,025.5,024.5,000.0,033.9,027.3,04.9,0000.0,0007.08,0003.20,0001.82
2024-03-01 01:28:00,SystemResetWarning,0823.5,4.99,000.00,025.5,024.5,000.0,033.9,027.3,04.9,0000.0,0007.49,0003.19,0001.82
2024-03-01 01:29:00,SystemResetWarning,0823.5,5.00,000.00,025.5,024.5,000.0,033.9,027.3,04.7,0000.0,0007.36,0003.18,0001.82
2024-03-01 01:30:00,SystemResetWarning,0823.5,5.01,000.00,025.4,024.5,000.0,033.9,027.2,04.7,0000.0,0007.43,0003.20,0001.84
2024-03-01 01:31:00,SystemResetWarning,0823.5,5.00,000.00,025.4,024.5,000.0,033.9,027.2,04.7,0000.0,0007.67,0003.18,0001.86
2024-03-01 01:32:00,SystemResetWarning,0823.5,5.00,000.00,025.4,024.5,000.0,033.9,027.2,04.7,0000.0,0007.96,0003.19,0001.88
2024-03-01 01:33:00,SystemResetWarning,0823.6,5.00,000.00,025.4,024.5,000.0,033.9,027.2,04.7,0000.0,0008.05,0003.23,0001.89
2024-03-01 01:34:00,SystemResetWarning,0823.5,4.99,000.00,025.4,024.5,000.0,033.9,027.2,04.9,0000.0,0008.11,0003.21,0001.90
2024-03-01 01:35:00,SystemResetWarning,0823.6,4.99,000.00,025.4,024.5,000.0,033.8,027.2,04.9,0000.0,0007.97,0003.15,0001.90
2024-03-01 01:36:00,SystemResetWarning,0823.6,5.00,000.00,025.4,024.5,000.0,033.8,027.2,05.0,0000.0,0007.96,0003.16,0001.91
2024-03-01 01:37:00,SystemResetWarning,0823.5,5.00,000.00,025.4,024.4,000.0,033.8,027.2,04.8,0000.0,0007.95,0003.17,0001.94
2024-03-01 01:38:00,SystemResetWarning,0823.6,5.00,000.00,025.4,024.4,000.0,033.8,027.2,04.9,0000.0,0007.86,0003.16,0001.95
2024-03-01 01:39:00,SystemResetWarning,0823.6,5.00,000.00,025.4,024.4,000.0,033.8,027.2,05.0,0000.0,0007.50,0003.15,0001.95
2024-03-01 01:40:00,SystemResetWarning,0823.7,5.00,000.00,025.4,024.4,000.0,033.8,027.2,04.9,0000.0,0007.45,0003.16,0001.97
2024-03-01 01:41:00,SystemResetWarning,0823.7,5.00,000.00,025.4,024.4,000.0,033.8,027.2,04.8,0000.0,0007.27,0003.13,0001.98
2024-03-01 01:42:00,SystemResetWarning,0823.7,5.00,000.00,025.4,024.4,000.0,033.8,027.2,04.7,0000.0,0006.53,0003.10,0001.98
2024-03-01 01:43:00,SystemResetWarning,0823.7,5.00,000.00,025.4,024.4,000.0,033.8,027.2,04.8,0000.0,0006.22,0003.11,0001.97
2024-03-01 01:44:00,SystemResetWarning,0823.7,5.00,000.00,025.4,024.4,000.0,033.8,027.2,04.8,0000.0,0006.29,0003.14,0001.97
2024-03-01 01:45:00,SystemResetWarning,0823.7,4.99,000.00,025.4,024.4,000.0,033.8,027.2,05.0,0000.0,0006.26,0003.16,0001.99
2024-03-01 01:46:00,SystemResetWarning,0823.7,5.00,000.00,025.4,024.4,000.0,033.8,027.2,04.9,0000.0,0006.15,0003.17,0002.01
2024-03-01 01:47:00,SystemResetWarning,0823.7,5.01,000.00,025.3,024.4,000.0,033.8,027.1,04.9,0000.0,0006.06,0003.14,0002.02
2024-03-01 01:48:00,SystemResetWarning,0823.7,5.01,000.00,025.3,024.4,000.0,033.8,027.1,04.8,0000.0,0006.18,0003.15,0002.00
2024-03-01 01:49:00,SystemResetWarning,0823.6,5.00,000.00,025.3,024.4,000.0,033.8,027.1,05.1,0000.0,0006.30,0003.17,0002.01
2024-03-01 01:50:00,SystemResetWarning,0823.6,4.98,000.00,025.3,024.4,000.0,033.8,027.1,04.8,0000.0,0006.28,0003.19,0002.02
2024-03-01 01:51:00,SystemResetWarning,0823.6,5.00,000.00,025.3,024.3,000.0,033.8,027.1,04.6,0000.0,0006.40,0003.21,0002.02
2024-03-01 01:52:00,SystemResetWarning,0823.6,5.01,000.00,025.3,024.4,000.0,033.8,027.1,04.7,0000.0,0006.43,0003.18,0002.01
2024-03-01 01:53:00,SystemResetWarning,0823.6,5.01,000.00,025.3,024.4,000.0,033.7,027.1,04.6,0000.0,0006.52,0003.21,0002.02
2024-03-01 01:54:00,SystemResetWarning,0823.6,5.01,000.00,025.3,024.4,000.0,033.7,027.1,04.7,0000.0,0007.21,0003.21,0002.01
2024-03-01 01:55:00,SystemResetWarning,0823.6,5.00,000.00,025.3,024.3,000.0,033.7,027.1,04.4,0000.0,0007.35,0003.16,0002.03
2024-03-01 01:56:00,SystemResetWarning,0823.6,4.99,000.00,025.3,024.3,000.0,033.7,027.1,04.3,0000.0,0007.40,0003.18,0002.03
2024-03-01 01:57:00,SystemResetWarning,0823.6,5.00,000.00,025.3,024.3,000.0,033.7,027.1,04.5,0000.0,0007.53,0003.21,0002.03
2024-03-01 01:58:00,SystemResetWarning,0823.6,5.00,000.00,025.3,024.3,000.0,033.7,027.1,04.5,0000.0,0007.79,0003.29,0002.01
2024-03-01 01:59:00,SystemResetWarning,0823.6,4.99,000.00,025.3,024.3,000.0,033.7,027.0,04.5,0000.0,0007.88,0003.32,0002.03
